Terminal Aerodrome Forecast
Issued by NWS

Home | Current Version | Previous Version | Text Only | Print | Product List | Glossary Off
Versions: 1 2 3 4 5 6 7 8 9 10 11 12 13 14 15 16 17 18 19 20 21 22 23

000
FTUS45 KGGW 020533
TAFGDV
TAF
KGDV 020533Z 0206/0306 07005KT P6SM FEW200
     FM021500 15007KT P6SM FEW140
     FM030300 VRB03KT P6SM FEW140
      AMD LTD TO CLD VIS AND WIND=

USA.gov is the U.S. government's official web portal to all federal, state and local government web resources and services.